Regional Weather Roundup
Issued by NWS Albany, NY

Home | Current Version | Previous Version | Text Only | Print | Product List | Glossary On
Versions: 1 2 3 4 5 6 7 8 9 10 11 12 13 14 15 16 17 18 19 20 21 22 23 24 25 26 27
000
ASUS41 KALY 060310
RWRALY

NEW YORK STATE HOURLY WEATHER ROUNDUP
NATIONAL WEATHER SERVICE ALBANY NY
1100 PM EDT THU MAY 05 2016

NOTE: "FAIR" INDICATES FEW OR NO CLOUDS BELOW 12,000 FEET WITH NO
SIGNIFICANT WEATHER AND/OR NO OBSTRUCTIONS TO VISIBILITY.

NYZ032-033-038>043-046>054-057>066-NYZ062>081-082-084-060400-
EAST


CITY           SKY/WX    TMP DP  RH WIND       PRES   REMARKS
ALBANY         CLOUDY    54  44  69 N6        29.71F
GLENS FALLS    CLOUDY    56  42  59 N7        29.72S
POUGHKEEPSIE   CLOUDY    56  45  66 NE7       29.68S
NEWBURGH       CLOUDY    54  46  76 E12       29.69S
MONTGOMERY     CLOUDY    55  45  68 NE9       29.68S
WHITE PLAINS   CLOUDY    51  43  74 NE6       29.68R
ISLIP          CLOUDY    49  41  74 NE15      29.67S
NEW YORK CITY  CLOUDY    53  47  79 NE17      29.68S
CENTRAL PARK   CLOUDY    54  43  66 E8        29.70S
$$

NYZ005>009-017-018-044>046-055-056-060400-
CENTRAL


CITY           SKY/WX    TMP DP  RH WIND       PRES   REMARKS
FULTON         MOCLDY    55  43  63 N8        29.76F
SYRACUSE       CLOUDY    55  44  66 CALM      29.75R
ROME           CLOUDY    56  43  61 NE7       29.75S
ELMIRA         CLOUDY    54  42  64 N7        29.74R
BINGHAMTON     CLOUDY    51  43  74 NE8       29.72F
MONTICELLO     CLOUDY    50  43  76 N5        29.71S
$$

NYZ026>034-041>043-087-060400-
NORTH


CITY           SKY/WX    TMP DP  RH WIND       PRES   REMARKS
WATERTOWN      CLEAR     45  39  79 NE3       29.78S
FORT DRUM      NOT AVBL
MASSENA        CLEAR     50  38  63 NE3       29.81S
SARANAC LAKE   CLOUDY    49  37  63 NE8       29.76F
PLATTSBURGH    PTCLDY    54  40  59 N8        29.77F
$$

NYZ001>004-010>016-019>021-085-060400-
WEST


CITY           SKY/WX    TMP DP  RH WIND       PRES   REMARKS
NIAGARA FALLS  MOCLDY    51  43  74 NW6       29.82R
BUFFALO        PTCLDY    52  43  71 NE3       29.81S
DUNKIRK        PTCLDY    46  42  86 CALM      29.82R
JAMESTOWN      PTCLDY    48  39  71 N8        29.80S
WELLSVILLE     CLOUDY    49  40  71 CALM      29.78S
ROCHESTER      PTCLDY    50  42  74 N7        29.80S
PENN YAN       CLOUDY    54  41  61 N8        29.77R
$$

             KEY
       WCI = WIND CHILL INDEX
       VSB = VISIBILITY
       HX  = HEAT INDEX
$$




USA.gov is the U.S. government's official web portal to all federal, state and local government web resources and services.